START_TIME,STEP,MOV.,A46,t_acc.,A13,t_acc.,M47,t_acc.,A17,t_acc.,A28,t_acc.,M38,t_acc.
1979-07-21 09:00:25.210 ,0,0,,0,0.,4.8,0.,4.8,,0,0.,4.8,0.,4.8
1979-07-21 09:00:30.010 ,0,0,,0,0.,4.8,0.,4.8,,0,0.,4.8,0.,4.8
1979-07-21 09:00:34.810 ,0,0,,0,1.,4.8,0.,4.8,,0,0.,4.8,0.,4.8
1979-07-21 09:00:39.610 ,0,0,,0,0.,4.8,0.,4.8,,0,0.,4.8,0.,4.8
1979-07-21 09:00:44.410 ,0,0,,0,0.,4.8,0.,4.8,,0,0.,4.8,0.,4.8
1979-07-21 09:00:49.210 ,0,0,,0,0.,4.8,0.,4.8,,0,0.,4.8,0.,4.8
1979-07-21 09:00:54.010 ,0,0,,0,0.,4.8,0.,4.8,,0,0.,4.8,0.,4.8
1979-07-21 09:00:58.810 ,0,0,,0,1.,4.8,0.,4.8,,0,0.,4.8,0.,4.8
1979-07-21 09:01:03.610 ,0,0,,0,0.,4.8,0.,4.8,,0,0.,4.8,0.,4.8
1979-07-21 09:01:08.410 ,0,0,,0,0.,4.8,0.,4.8,,0,1.,4.8,0.,4.8
1979-07-21 09:01:13.210 ,0,0,,0,2.,4.8,0.,4.8,,0,0.,4.8,0.,4.8
1979-07-21 09:01:18.010 ,0,0,,0,0.,4.8,0.,4.8,,0,0.,4.8,0.,4.8
1979-07-21 09:01:22.810 ,0,0,,0,3.,4.8,0.,4.8,,0,0.,4.8,0.,4.8
1979-07-21 09:01:27.610 ,0,0,,0,0.,4.8,0.,4.8,,0,0.,4.8,0.,4.8
1979-07-21 09:01:32.410 ,0,0,,0,0.,4.8,0.,4.8,,0,0.,4.8,0.,4.8
1979-07-21 09:01:37.210 ,1,0,,0,0.,4.8,0.,4.8,,0,0.,4.8,0.,4.8
1979-07-21 09:01:42.010 ,1,0,,0,0.,4.8,0.,4.8,,0,0.,4.8,0.,4.8
1979-07-21 09:01:46.810 ,1,0,,0,0.,4.8,0.,4.8,,0,0.,4.8,0.,4.8
1979-07-21 09:01:51.610 ,1,0,,0,3.,4.8,0.,4.8,,0,0.,4.8,0.,4.8
1979-07-21 09:01:56.410 ,1,0,,0,4.,4.8,0.,4.8,,0,0.,4.8,2.,4.8
1979-07-21 09:02:01.210 ,1,0,,0,2.,4.8,0.,4.8,,0,0.,4.8,0.,4.8
1979-07-21 09:02:06.010 ,1,0,,0,1.,4.8,0.,4.8,,0,0.,4.8,0.,4.8
1979-07-21 09:02:10.810 ,1,0,,0,0.,4.8,0.,4.8,,0,0.,4.8,1.,4.8
1979-07-21 09:02:15.610 ,1,0,,0,0.,4.8,0.,4.8,,0,0.,4.8,0.,4.8
1979-07-21 09:02:20.410 ,1,0,,0,0.,4.8,0.,4.8,,0,0.,4.8,0.,4.8
1979-07-21 09:02:25.210 ,0,0,,0,0.,4.8,0.,4.8,,0,0.,4.8,0.,4.8
1979-07-21 09:02:30.010 ,0,0,,0,0.,4.8,0.,4.8,,0,1.,4.8,0.,4.8
1979-07-21 09:02:34.810 ,0,0,,0,0.,4.8,0.,4.8,,0,0.,4.8,0.,4.8
1979-07-21 09:02:39.610 ,0,0,,0,3.,4.8,0.,4.8,,0,0.,4.8,1.,4.8
1979-07-21 09:02:44.410 ,0,0,,0,2.,4.8,0.,4.8,,0,0.,4.8,0.,4.8
1979-07-21 09:02:49.210 ,0,0,,0,3.,4.8,0.,4.8,,0,0.,4.8,0.,4.8
1979-07-21 09:02:54.010 ,0,0,,0,6.,4.8,0.,4.8,,0,0.,4.8,0.,4.8
1979-07-21 09:02:58.810 ,0,0,,0,3.,4.8,0.,4.8,,0,0.,4.8,0.,4.8
1979-07-21 09:03:03.610 ,0,0,,0,0.,4.8,0.,4.8,,0,0.,4.8,0.,4.8
1979-07-21 09:03:08.410 ,0,0,,0,0.,4.8,0.,4.8,,0,0.,4.8,0.,4.8
1979-07-21 09:03:13.210 ,3,0,,0,0.,4.8,0.,4.8,,0,0.,4.8,0.,4.8
1979-07-21 09:03:18.010 ,3,0,,0,0.,4.8,0.,4.8,,0,0.,4.8,2.,4.8
1979-07-21 09:03:22.810 ,3,0,,0,0.,4.8,0.,4.8,,0,0.,4.8,0.,4.8
1979-07-21 09:03:27.610 ,3,0,,0,3.,4.8,0.,4.8,,0,0.,4.8,0.,4.8
1979-07-21 09:03:32.410 ,3,0,,0,2.,4.8,0.,4.8,,0,0.,4.8,0.,4.8
1979-07-21 09:03:37.210 ,3,0,,0,2.,4.8,0.,4.8,,0,0.,4.8,0.,4.8
1979-07-21 09:03:42.010 ,3,0,,0,5.,4.8,0.,4.8,,0,0.,4.8,0.,4.8
1979-07-21 09:03:46.810 ,3,0,,0,3.,4.8,0.,4.8,,0,0.,4.8,0.,4.8
1979-07-21 09:03:51.610 ,3,0,,0,0.,4.8,0.,4.8,,0,0.,4.8,0.,4.8
1979-07-21 09:03:56.410 ,3,0,,0,0.,4.8,0.,4.8,,0,0.,4.8,0.,4.8
1979-07-21 09:04:01.210 ,4,0,,0,0.,4.8,0.,4.8,,0,0.,4.8,0.,4.8
1979-07-21 09:04:06.010 ,4,0,,0,0.,4.8,0.,4.8,,0,0.,4.8,0.,4.8
1979-07-21 09:04:10.810 ,4,0,,0,0.,4.8,0.,4.8,,0,0.,4.8,0.,4.8
1979-07-21 09:04:15.610 ,4,0,,0,3.,4.8,0.,4.8,,0,0.,4.8,1.,4.8
1979-07-21 09:04:20.410 ,4,0,,0,2.,4.8,0.,4.8,,0,0.,4.8,0.,4.8
1979-07-21 09:04:25.210 ,4,0,,0,3.,4.8,0.,4.8,,0,0.,4.8,1.,4.8
1979-07-21 09:04:30.010 ,4,0,,0,5.,4.8,0.,4.8,,0,0.,4.8,0.,4.8
1979-07-21 09:04:34.810 ,4,0,,0,2.,4.8,0.,4.8,,0,0.,4.8,0.,4.8
1979-07-21 09:04:39.610 ,4,0,,0,0.,4.8,0.,4.8,,0,0.,4.8,0.,4.8
1979-07-21 09:04:44.410 ,4,0,,0,0.,4.8,0.,4.8,,0,0.,4.8,0.,4.8
1979-07-21 09:04:49.210 ,5,0,,0,0.,4.8,0.,4.8,,0,1.,4.8,0.,4.8
1979-07-21 09:04:54.010 ,5,0,,0,0.,4.8,0.,4.8,,0,0.,4.8,0.,4.8
1979-07-21 09:04:58.810 ,5,0,,0,0.,4.8,0.,4.8,,0,0.,4.8,0.,4.8
1979-07-21 09:05:03.610 ,5,0,,0,3.,4.8,0.,4.8,,0,0.,4.8,0.,4.8
1979-07-21 09:05:08.410 ,5,0,,0,0.,4.8,0.,4.8,,0,0.,4.8,0.,4.8
1979-07-21 09:05:13.210 ,5,0,,0,1.,4.8,0.,4.8,,0,0.,4.8,0.,4.8
1979-07-21 09:05:18.010 ,5,0,,0,1.,4.8,0.,4.8,,0,0.,4.8,0.,4.8
1979-07-21 09:05:22.810 ,5,0,,0,1.,4.8,0.,4.8,,0,0.,4.8,0.,4.8
1979-07-21 09:05:27.610 ,5,0,,0,0.,4.8,0.,4.8,,0,0.,4.8,0.,4.8
1979-07-21 09:05:32.410 ,5,0,,0,0.,4.8,0.,4.8,,0,0.,4.8,0.,4.8
1979-07-21 09:05:37.210 ,6,0,,0,0.,4.8,0.,4.8,,0,0.,4.8,0.,4.8
1979-07-21 09:05:42.010 ,6,0,,0,0.,4.8,0.,4.8,,0,0.,4.8,0.,4.8
1979-07-21 09:05:46.810 ,6,0,,0,1.,4.8,0.,4.8,,0,0.,4.8,0.,4.8
1979-07-21 09:05:51.610 ,6,0,,0,5.,4.8,0.,4.8,,0,0.,4.8,0.,4.8
1979-07-21 09:05:56.410 ,6,0,,0,4.,4.8,0.,4.8,,0,0.,4.8,0.,4.8
1979-07-21 09:06:01.210 ,6,0,,0,3.,4.8,0.,4.8,,0,0.,4.8,0.,4.8
1979-07-21 09:06:06.010 ,6,0,,0,6.,4.8,1.,4.8,,0,0.,4.8,0.,4.8
1979-07-21 09:06:10.810 ,6,0,,0,4.,4.8,0.,4.8,,0,0.,4.8,0.,4.8
1979-07-21 09:06:15.610 ,6,0,,0,0.,4.8,0.,4.8,,0,0.,4.8,0.,4.8
1979-07-21 09:06:20.410 ,6,0,,0,0.,4.8,0.,4.8,,0,0.,4.8,0.,4.8
1979-07-21 09:06:25.210 ,7,0,,0,0.,4.8,0.,4.8,,0,0.,4.8,0.,4.8
1979-07-21 09:06:30.010 ,7,0,,0,0.,4.8,0.,4.8,,0,0.,4.8,0.,4.8
1979-07-21 09:06:34.810 ,7,0,,0,1.,4.8,0.,4.8,,0,0.,4.8,0.,4.8
1979-07-21 09:06:39.610 ,7,0,,0,15.,4.8,0.,4.8,,0,0.,4.8,1.,4.8
1979-07-21 09:06:44.410 ,7,0,,0,16.,4.8,0.,4.8,,0,0.,4.8,0.,4.8
1979-07-21 09:06:49.210 ,7,0,,0,11.,4.8,0.,4.8,,0,0.,4.8,0.,4.8
1979-07-21 09:06:54.010 ,7,0,,0,9.,4.8,0.,4.8,,0,0.,4.8,0.,4.8
1979-07-21 09:06:58.810 ,7,0,,0,8.,4.8,0.,4.8,,0,0.,4.8,0.,4.8
1979-07-21 09:07:03.610 ,7,0,,0,0.,4.8,0.,4.8,,0,0.,4.8,0.,4.8
1979-07-21 09:07:08.410 ,7,0,,0,0.,4.8,0.,4.8,,0,0.,4.8,0.,4.8
1979-07-21 09:07:13.210 ,3,1,,0,0.,4.8,0.,4.8,,0,0.,4.8,0.,4.8
1979-07-21 09:07:18.010 ,3,1,,0,0.,4.8,0.,4.8,,0,0.,4.8,0.,4.8
1979-07-21 09:07:22.810 ,3,1,,0,0.,4.8,0.,4.8,,0,0.,4.8,0.,4.8
1979-07-21 09:07:27.610 ,3,1,,0,1.,4.8,0.,4.8,,0,0.,4.8,0.,4.8
1979-07-21 09:07:32.410 ,3,1,,0,2.,4.8,0.,4.8,,0,0.,4.8,0.,4.8
1979-07-21 09:07:37.210 ,0,1,,0,1.,4.8,0.,4.8,,0,0.,4.8,0.,4.8
1979-07-21 09:07:42.010 ,0,1,,0,4.,4.8,0.,4.8,,0,0.,4.8,0.,4.8
1979-07-21 09:07:46.810 ,0,1,,0,3.,4.8,0.,4.8,,0,0.,4.8,0.,4.8
1979-07-21 09:07:51.610 ,0,1,,0,0.,4.8,0.,4.8,,0,0.,4.8,0.,4.8
1979-07-21 09:07:56.410 ,0,1,,0,0.,4.8,0.,4.8,,0,0.,4.8,0.,4.8
1979-07-21 09:08:01.210 ,4,1,,0,0.,4.8,0.,4.8,,0,0.,4.8,0.,4.8
1979-07-21 09:08:06.010 ,4,1,,0,0.,4.8,0.,4.8,,0,0.,4.8,0.,4.8
1979-07-21 09:08:10.810 ,4,1,,0,1.,4.8,0.,4.8,,0,0.,4.8,0.,4.8
1979-07-21 09:08:15.610 ,4,1,,0,2.,4.8,0.,4.8,,0,0.,4.8,0.,4.8
1979-07-21 09:08:20.410 ,4,1,,0,2.,4.8,0.,4.8,,0,0.,4.8,0.,4.8
1979-07-21 09:08:25.210 ,7,1,,0,0.,4.8,0.,4.8,,0,0.,4.8,1.,4.8
1979-07-21 09:08:30.010 ,7,1,,0,3.,4.8,0.,4.8,,0,0.,4.8,0.,4.8
1979-07-21 09:08:34.810 ,7,1,,0,2.,4.8,0.,4.8,,0,0.,4.8,0.,4.8
1979-07-21 09:08:39.610 ,7,1,,0,0.,4.8,0.,4.8,,0,0.,4.8,0.,4.8
1979-07-21 09:08:44.410 ,7,1,,0,0.,4.8,0.,4.8,,0,0.,4.8,0.,4.8
1979-07-21 09:08:49.210 ,3,1,,0,0.,4.8,0.,4.8,,0,0.,4.8,0.,4.8
1979-07-21 09:08:54.010 ,3,1,,0,0.,4.8,0.,4.8,,0,0.,4.8,0.,4.8
1979-07-21 09:08:58.810 ,3,1,,0,1.,4.8,0.,4.8,,0,0.,4.8,0.,4.8
1979-07-21 09:09:03.610 ,3,1,,0,1.,4.8,0.,4.8,,0,0.,4.8,0.,4.8
1979-07-21 09:09:08.410 ,3,1,,0,5.,4.8,0.,4.8,,0,0.,4.8,0.,4.8
1979-07-21 09:09:13.210 ,0,1,,0,3.,4.8,0.,4.8,,0,0.,4.8,0.,4.8
1979-07-21 09:09:18.010 ,0,1,,0,0.,4.8,0.,4.8,,0,0.,4.8,0.,4.8
1979-07-21 09:09:22.810 ,0,1,,0,1.,4.8,0.,4.8,,0,0.,4.8,0.,4.8
1979-07-21 09:09:27.610 ,0,1,,0,0.,4.8,0.,4.8,,0,0.,4.8,0.,4.8
1979-07-21 09:09:32.410 ,0,1,,0,0.,4.8,0.,4.8,,0,0.,4.8,0.,4.8
1979-07-21 09:09:37.210 ,4,1,,0,0.,4.8,0.,4.8,,0,0.,4.8,0.,4.8
1979-07-21 09:09:42.010 ,4,1,,0,0.,4.8,0.,4.8,,0,0.,4.8,0.,4.8
1979-07-21 09:09:46.810 ,4,1,,0,1.,4.8,0.,4.8,,0,0.,4.8,0.,4.8
1979-07-21 09:09:51.610 ,4,1,,0,3.,4.8,0.,4.8,,0,0.,4.8,0.,4.8
1979-07-21 09:09:56.410 ,4,1,,0,5.,4.8,0.,4.8,,0,0.,4.8,0.,4.8
1979-07-21 09:10:01.210 ,7,1,,0,1.,4.8,0.,4.8,,0,0.,4.8,1.,4.8
1979-07-21 09:10:06.010 ,7,1,,0,7.,4.8,0.,4.8,,0,0.,4.8,0.,4.8
1979-07-21 09:10:10.810 ,7,1,,0,2.,4.8,0.,4.8,,0,0.,4.8,0.,4.8
1979-07-21 09:10:15.610 ,7,1,,0,0.,4.8,0.,4.8,,0,0.,4.8,0.,4.8
1979-07-21 09:10:20.410 ,7,1,,0,0.,4.8,0.,4.8,,0,0.,4.8,0.,4.8
1979-07-21 09:10:25.210 ,3,1,,0,0.,4.8,0.,4.8,,0,0.,4.8,0.,4.8
1979-07-21 09:10:30.010 ,3,1,,0,0.,4.8,0.,4.8,,0,0.,4.8,0.,4.8
1979-07-21 09:10:34.810 ,3,1,,0,0.,4.8,0.,4.8,,0,0.,4.8,0.,4.8
1979-07-21 09:10:39.610 ,3,1,,0,3.,4.8,0.,4.8,,0,0.,4.8,1.,4.8
1979-07-21 09:10:44.410 ,3,1,,0,1.,4.8,0.,4.8,,0,0.,4.8,0.,4.8
1979-07-21 09:10:49.210 ,0,1,,0,3.,4.8,0.,4.8,,0,0.,4.8,0.,4.8
1979-07-21 09:10:54.010 ,0,1,,0,2.,4.8,0.,4.8,,0,0.,4.8,0.,4.8
1979-07-21 09:10:58.810 ,0,1,,0,0.,4.8,0.,4.8,,0,1.,4.8,0.,4.8
1979-07-21 09:11:03.610 ,0,1,,0,0.,4.8,0.,4.8,,0,0.,4.8,0.,4.8
1979-07-21 09:11:08.410 ,0,1,,0,0.,4.8,0.,4.8,,0,0.,4.8,0.,4.8
1979-07-21 09:11:13.210 ,4,1,,0,0.,4.8,0.,4.8,,0,0.,4.8,1.,4.8
1979-07-21 09:11:18.010 ,4,1,,0,0.,4.8,0.,4.8,,0,0.,4.8,0.,4.8
1979-07-21 09:11:22.810 ,4,1,,0,1.,4.8,0.,4.8,,0,0.,4.8,0.,4.8
1979-07-21 09:11:27.610 ,4,1,,0,2.,4.8,0.,4.8,,0,0.,4.8,0.,4.8
1979-07-21 09:11:32.410 ,4,1,,0,3.,4.8,0.,4.8,,0,0.,4.8,0.,4.8
1979-07-21 09:11:37.210 ,7,1,,0,6.,4.8,0.,4.8,,0,0.,4.8,1.,4.8
1979-07-21 09:11:42.010 ,7,1,,0,5.,4.8,0.,4.8,,0,0.,4.8,0.,4.8
1979-07-21 09:11:46.810 ,7,1,,0,4.,4.8,0.,4.8,,0,0.,4.8,1.,4.8
1979-07-21 09:11:51.610 ,7,1,,0,0.,4.8,0.,4.8,,0,0.,4.8,0.,4.8
1979-07-21 09:11:56.410 ,7,1,,0,0.,4.8,0.,4.8,,0,0.,4.8,0.,4.8
1979-07-21 09:12:01.210 ,3,1,,0,0.,4.8,0.,4.8,,0,0.,4.8,0.,4.8
1979-07-21 09:12:06.010 ,3,1,,0,0.,4.8,0.,4.8,,0,0.,4.8,0.,4.8
1979-07-21 09:12:10.810 ,3,1,,0,3.,4.8,0.,4.8,,0,0.,4.8,0.,4.8
1979-07-21 09:12:15.610 ,3,1,,0,3.,4.8,0.,4.8,,0,0.,4.8,0.,4.8
1979-07-21 09:12:20.410 ,3,1,,0,4.,4.8,0.,4.8,,0,0.,4.8,0.,4.8
1979-07-21 09:12:25.210 ,0,1,,0,1.,4.8,0.,4.8,,0,0.,4.8,0.,4.8
1979-07-21 09:12:30.010 ,0,1,,0,1.,4.8,0.,4.8,,0,0.,4.8,1.,4.8
1979-07-21 09:12:34.810 ,0,1,,0,3.,4.8,0.,4.8,,0,0.,4.8,0.,4.8
1979-07-21 09:12:39.610 ,0,1,,0,0.,4.8,0.,4.8,,0,0.,4.8,0.,4.8
1979-07-21 09:12:44.410 ,0,1,,0,0.,4.8,0.,4.8,,0,0.,4.8,1.,4.8
1979-07-21 09:12:49.210 ,4,1,,0,0.,4.8,0.,4.8,,0,0.,4.8,0.,4.8
1979-07-21 09:12:54.010 ,4,1,,0,0.,4.8,0.,4.8,,0,0.,4.8,1.,4.8
1979-07-21 09:12:58.810 ,4,1,,0,0.,4.8,0.,4.8,,0,0.,4.8,0.,4.8
1979-07-21 09:13:03.610 ,4,1,,0,2.,4.8,0.,4.8,,0,0.,4.8,0.,4.8
1979-07-21 09:13:08.410 ,4,1,,0,3.,4.8,0.,4.8,,0,0.,4.8,0.,4.8
1979-07-21 09:13:13.210 ,7,1,,0,1.,4.8,0.,4.8,,0,0.,4.8,0.,4.8
1979-07-21 09:13:18.010 ,7,1,,0,1.,4.8,0.,4.8,,0,0.,4.8,0.,4.8
1979-07-21 09:13:22.810 ,7,1,,0,1.,4.8,0.,4.8,,0,0.,4.8,0.,4.8
1979-07-21 09:13:27.610 ,7,1,,0,0.,4.8,0.,4.8,,0,0.,4.8,0.,4.8
1979-07-21 09:13:32.410 ,7,1,,0,0.,4.8,0.,4.8,,0,0.,4.8,0.,4.8
1979-07-21 09:13:37.210 ,3,1,,0,0.,4.8,0.,4.8,,0,0.,4.8,0.,4.8
1979-07-21 09:13:42.010 ,3,1,,0,0.,4.8,0.,4.8,,0,0.,4.8,0.,4.8
1979-07-21 09:13:46.810 ,3,1,,0,0.,4.8,0.,4.8,,0,0.,4.8,1.,4.8
1979-07-21 09:13:51.610 ,3,1,,0,2.,4.8,0.,4.8,,0,0.,4.8,0.,4.8
1979-07-21 09:13:56.410 ,3,1,,0,1.,4.8,0.,4.8,,0,0.,4.8,0.,4.8
1979-07-21 09:14:01.210 ,0,1,,0,1.,4.8,0.,4.8,,0,0.,4.8,0.,4.8
1979-07-21 09:14:06.010 ,0,1,,0,2.,4.8,0.,4.8,,0,0.,4.8,0.,4.8
1979-07-21 09:14:10.810 ,0,1,,0,2.,4.8,0.,4.8,,0,0.,4.8,0.,4.8
1979-07-21 09:14:15.610 ,0,1,,0,0.,4.8,0.,4.8,,0,0.,4.8,0.,4.8
1979-07-21 09:14:20.410 ,0,1,,0,0.,4.8,0.,4.8,,0,0.,4.8,0.,4.8
1979-07-21 09:14:25.210 ,4,1,,0,0.,4.8,0.,4.8,,0,0.,4.8,0.,4.8
1979-07-21 09:14:30.010 ,4,1,,0,0.,4.8,0.,4.8,,0,0.,4.8,0.,4.8
1979-07-21 09:14:34.810 ,4,1,,0,1.,4.8,0.,4.8,,0,0.,4.8,0.,4.8
1979-07-21 09:14:39.610 ,4,1,,0,,0,,0,,0,,0,,0
1979-07-21 09:14:44.410 ,4,1,,0,,0,,0,,0,,0,,0
1979-07-21 09:14:49.210 ,7,1,,0,4.,4.8,0.,4.8,,0,0.,4.8,0.,4.8
1979-07-21 09:14:54.010 ,7,1,,0,2.,4.8,0.,4.8,,0,0.,4.8,0.,4.8
1979-07-21 09:14:58.810 ,7,1,,0,3.,4.8,0.,4.8,,0,1.,4.8,0.,4.8
1979-07-21 09:15:03.610 ,7,1,,0,0.,4.8,0.,4.8,,0,0.,4.8,0.,4.8
1979-07-21 09:15:08.410 ,7,1,,0,0.,4.8,0.,4.8,,0,0.,4.8,0.,4.8
1979-07-21 09:15:13.210 ,3,1,,0,0.,4.8,0.,4.8,,0,0.,4.8,0.,4.8
1979-07-21 09:15:18.010 ,3,1,,0,0.,4.8,0.,4.8,,0,0.,4.8,0.,4.8
1979-07-21 09:15:22.810 ,3,1,,0,0.,4.8,0.,4.8,,0,0.,4.8,0.,4.8
1979-07-21 09:15:27.610 ,3,1,,0,5.,4.8,0.,4.8,,0,0.,4.8,0.,4.8
1979-07-21 09:15:32.410 ,3,1,,0,3.,4.8,0.,4.8,,0,0.,4.8,0.,4.8
1979-07-21 09:15:37.210 ,0,1,,0,2.,4.8,0.,4.8,,0,0.,4.8,1.,4.8
1979-07-21 09:15:42.010 ,0,1,,0,1.,4.8,0.,4.8,,0,0.,4.8,0.,4.8
1979-07-21 09:15:46.810 ,0,1,,0,2.,4.8,0.,4.8,,0,0.,4.8,0.,4.8
1979-07-21 09:15:51.610 ,0,1,,0,1.,4.8,0.,4.8,,0,0.,4.8,0.,4.8
1979-07-21 09:15:56.410 ,0,1,,0,0.,4.8,0.,4.8,,0,0.,4.8,0.,4.8
1979-07-21 09:16:01.210 ,4,1,,0,0.,4.8,0.,4.8,,0,0.,4.8,0.,4.8
1979-07-21 09:16:06.010 ,4,1,,0,0.,4.8,0.,4.8,,0,0.,4.8,0.,4.8
1979-07-21 09:16:10.810 ,4,1,,0,1.,4.8,0.,4.8,,0,0.,4.8,1.,4.8
1979-07-21 09:16:15.610 ,4,1,,0,2.,4.8,0.,4.8,,0,0.,4.8,0.,4.8
1979-07-21 09:16:20.410 ,4,1,,0,3.,4.8,0.,4.8,,0,0.,4.8,0.,4.8
1979-07-21 09:16:25.210 ,7,1,,0,3.,4.8,0.,4.8,,0,0.,4.8,0.,4.8
1979-07-21 09:16:30.010 ,7,1,,0,1.,4.8,0.,4.8,,0,0.,4.8,0.,4.8
1979-07-21 09:16:34.810 ,7,1,,0,4.,4.8,0.,4.8,,0,0.,4.8,0.,4.8
1979-07-21 09:16:39.610 ,7,1,,0,0.,4.8,0.,4.8,,0,0.,4.8,0.,4.8
1979-07-21 09:16:44.410 ,7,1,,0,0.,4.8,0.,4.8,,0,0.,4.8,0.,4.8
1979-07-21 09:16:49.210 ,3,1,,0,0.,4.8,0.,4.8,,0,0.,4.8,0.,4.8
1979-07-21 09:16:54.010 ,3,1,,0,0.,4.8,0.,4.8,,0,0.,4.8,0.,4.8
1979-07-21 09:16:58.810 ,3,1,,0,1.,4.8,0.,4.8,,0,0.,4.8,0.,4.8
1979-07-21 09:17:03.610 ,3,1,,0,3.,4.8,0.,4.8,,0,0.,4.8,0.,4.8
1979-07-21 09:17:08.410 ,3,1,,0,3.,4.8,0.,4.8,,0,0.,4.8,0.,4.8
1979-07-21 09:17:13.210 ,0,1,,0,2.,4.8,0.,4.8,,0,0.,4.8,0.,4.8
1979-07-21 09:17:18.010 ,0,1,,0,4.,4.8,0.,4.8,,0,0.,4.8,0.,4.8
1979-07-21 09:17:22.810 ,0,1,,0,2.,4.8,0.,4.8,,0,0.,4.8,0.,4.8
1979-07-21 09:17:27.610 ,0,1,,0,0.,4.8,0.,4.8,,0,0.,4.8,0.,4.8
1979-07-21 09:17:32.410 ,0,1,,0,0.,4.8,0.,4.8,,0,0.,4.8,0.,4.8
1979-07-21 09:17:37.210 ,0,0,,0,0.,4.8,0.,4.8,,0,0.,4.8,0.,4.8
1979-07-21 09:17:42.010 ,0,0,,0,0.,4.8,0.,4.8,,0,0.,4.8,0.,4.8
1979-07-21 09:17:46.810 ,0,0,,0,0.,4.8,0.,4.8,,0,1.,4.8,0.,4.8
1979-07-21 09:17:51.610 ,0,0,,0,5.,4.8,0.,4.8,,0,0.,4.8,0.,4.8
1979-07-21 09:17:56.410 ,0,0,,0,5.,4.8,0.,4.8,,0,0.,4.8,1.,4.8
1979-07-21 09:18:01.210 ,0,0,,0,1.,4.8,0.,4.8,,0,0.,4.8,0.,4.8
1979-07-21 09:18:06.010 ,0,0,,0,4.,4.8,0.,4.8,,0,0.,4.8,0.,4.8
1979-07-21 09:18:10.810 ,0,0,,0,2.,4.8,0.,4.8,,0,0.,4.8,0.,4.8
1979-07-21 09:18:15.610 ,0,0,,0,0.,4.8,0.,4.8,,0,0.,4.8,0.,4.8
1979-07-21 09:18:20.410 ,0,0,,0,0.,4.8,0.,4.8,,0,0.,4.8,0.,4.8
1979-07-21 09:18:25.210 ,5,0,,0,0.,4.8,0.,4.8,,0,0.,4.8,0.,4.8
1979-07-21 09:18:30.010 ,5,0,,0,0.,4.8,0.,4.8,,0,0.,4.8,0.,4.8
1979-07-21 09:18:34.810 ,5,0,,0,0.,4.8,0.,4.8,,0,0.,4.8,0.,4.8
1979-07-21 09:18:39.610 ,5,0,,0,6.,4.8,0.,4.8,,0,0.,4.8,0.,4.8
1979-07-21 09:18:44.410 ,5,0,,0,4.,4.8,0.,4.8,,0,1.,4.8,0.,4.8
1979-07-21 09:18:49.210 ,5,0,,0,6.,4.8,0.,4.8,,0,0.,4.8,0.,4.8
1979-07-21 09:18:54.010 ,5,0,,0,3.,4.8,0.,4.8,,0,0.,4.8,0.,4.8
1979-07-21 09:18:58.810 ,5,0,,0,1.,4.8,0.,4.8,,0,0.,4.8,0.,4.8
1979-07-21 09:19:03.610 ,5,0,,0,0.,4.8,0.,4.8,,0,0.,4.8,1.,4.8
1979-07-21 09:19:08.410 ,5,0,,0,0.,4.8,0.,4.8,,0,0.,4.8,0.,4.8
1979-07-21 09:19:13.210 ,4,0,,0,0.,4.8,0.,4.8,,0,0.,4.8,1.,4.8
1979-07-21 09:19:18.010 ,4,0,,0,0.,4.8,0.,4.8,,0,0.,4.8,0.,4.8
1979-07-21 09:19:22.810 ,4,0,,0,2.,4.8,0.,4.8,,0,0.,4.8,0.,4.8
1979-07-21 09:19:27.610 ,4,0,,0,3.,4.8,0.,4.8,,0,0.,4.8,0.,4.8
1979-07-21 09:19:32.410 ,4,0,,0,2.,4.8,0.,4.8,,0,0.,4.8,1.,4.8
1979-07-21 09:19:37.210 ,4,0,,0,2.,4.8,0.,4.8,,0,0.,4.8,0.,4.8
1979-07-21 09:19:42.010 ,4,0,,0,4.,4.8,0.,4.8,,0,0.,4.8,0.,4.8
1979-07-21 09:19:46.810 ,4,0,,0,2.,4.8,0.,4.8,,0,0.,4.8,0.,4.8
1979-07-21 09:19:51.610 ,4,0,,0,0.,4.8,0.,4.8,,0,0.,4.8,0.,4.8
1979-07-21 09:19:56.410 ,4,0,,0,0.,4.8,0.,4.8,,0,0.,4.8,0.,4.8
1979-07-21 09:20:01.210 ,3,0,,0,0.,4.8,0.,4.8,,0,0.,4.8,0.,4.8
1979-07-21 09:20:06.010 ,3,0,,0,0.,4.8,0.,4.8,,0,0.,4.8,0.,4.8
1979-07-21 09:20:10.810 ,3,0,,0,0.,4.8,0.,4.8,,0,0.,4.8,0.,4.8
1979-07-21 09:20:15.610 ,3,0,,0,3.,4.8,0.,4.8,,0,0.,4.8,0.,4.8
1979-07-21 09:20:20.410 ,3,0,,0,4.,4.8,0.,4.8,,0,0.,4.8,0.,4.8
1979-07-21 09:20:25.210 ,3,0,,0,5.,4.8,0.,4.8,,0,0.,4.8,1.,4.8
1979-07-21 09:20:30.010 ,3,0,,0,2.,4.8,0.,4.8,,0,0.,4.8,0.,4.8
1979-07-21 09:20:34.810 ,3,0,,0,2.,4.8,0.,4.8,,0,0.,4.8,0.,4.8
1979-07-21 09:20:39.610 ,3,0,,0,0.,4.8,0.,4.8,,0,0.,4.8,0.,4.8
1979-07-21 09:20:44.410 ,3,0,,0,0.,4.8,0.,4.8,,0,0.,4.8,0.,4.8
1979-07-21 09:20:49.210 ,2,0,,0,0.,4.8,0.,4.8,,0,0.,4.8,0.,4.8
1979-07-21 09:20:54.010 ,2,0,,0,0.,4.8,0.,4.8,,0,0.,4.8,0.,4.8
1979-07-21 09:20:58.810 ,2,0,,0,1.,4.8,0.,4.8,,0,0.,4.8,0.,4.8
1979-07-21 09:21:03.610 ,2,0,,0,8.,4.8,0.,4.8,,0,0.,4.8,0.,4.8
1979-07-21 09:21:08.410 ,2,0,,0,1.,4.8,0.,4.8,,0,0.,4.8,0.,4.8
1979-07-21 09:21:13.210 ,2,0,,0,2.,4.8,0.,4.8,,0,0.,4.8,1.,4.8
1979-07-21 09:21:18.010 ,2,0,,0,3.,4.8,0.,4.8,,0,0.,4.8,0.,4.8
1979-07-21 09:21:22.810 ,2,0,,0,1.,4.8,0.,4.8,,0,0.,4.8,0.,4.8
1979-07-21 09:21:27.610 ,2,0,,0,0.,4.8,0.,4.8,,0,0.,4.8,0.,4.8
1979-07-21 09:21:32.410 ,2,0,,0,0.,4.8,0.,4.8,,0,0.,4.8,0.,4.8
1979-07-21 09:21:37.210 ,1,0,,0,0.,4.8,0.,4.8,,0,0.,4.8,1.,4.8
1979-07-21 09:21:42.010 ,1,0,,0,0.,4.8,0.,4.8,,0,0.,4.8,0.,4.8
1979-07-21 09:21:46.810 ,1,0,,0,0.,4.8,0.,4.8,,0,0.,4.8,0.,4.8
1979-07-21 09:21:51.610 ,1,0,,0,3.,4.8,0.,4.8,,0,0.,4.8,0.,4.8
1979-07-21 09:21:56.410 ,1,0,,0,2.,4.8,0.,4.8,,0,0.,4.8,0.,4.8
1979-07-21 09:22:01.210 ,1,0,,0,1.,4.8,0.,4.8,,0,0.,4.8,0.,4.8
1979-07-21 09:22:06.010 ,1,0,,0,3.,4.8,0.,4.8,,0,0.,4.8,0.,4.8
1979-07-21 09:22:10.810 ,1,0,,0,1.,4.8,0.,4.8,,0,0.,4.8,0.,4.8
1979-07-21 09:22:15.610 ,1,0,,0,0.,4.8,0.,4.8,,0,0.,4.8,0.,4.8
1979-07-21 09:22:20.410 ,1,0,,0,0.,4.8,0.,4.8,,0,0.,4.8,1.,4.8
1979-07-21 09:22:25.210 ,0,0,,0,0.,4.8,0.,4.8,,0,0.,4.8,0.,4.8
1979-07-21 09:22:30.010 ,0,0,,0,0.,4.8,0.,4.8,,0,0.,4.8,0.,4.8
1979-07-21 09:22:34.810 ,0,0,,0,0.,4.8,1.,4.8,,0,0.,4.8,0.,4.8
1979-07-21 09:22:39.610 ,0,0,,0,1.,4.8,0.,4.8,,0,0.,4.8,0.,4.8
1979-07-21 09:22:44.410 ,0,0,,0,0.,4.8,0.,4.8,,0,0.,4.8,0.,4.8
1979-07-21 09:22:49.210 ,0,0,,0,0.,4.8,0.,4.8,,0,1.,4.8,0.,4.8
1979-07-21 09:22:54.010 ,0,0,,0,3.,4.8,0.,4.8,,0,0.,4.8,0.,4.8
1979-07-21 09:22:58.810 ,0,0,,0,0.,4.8,0.,4.8,,0,0.,4.8,0.,4.8
1979-07-21 09:23:03.610 ,0,0,,0,0.,4.8,0.,4.8,,0,0.,4.8,0.,4.8
1979-07-21 09:23:08.410 ,0,0,,0,0.,4.8,0.,4.8,,0,0.,4.8,0.,4.8
1979-07-21 09:23:13.210 ,0,0,,0,0.,4.8,0.,4.8,,0,0.,4.8,0.,4.8
1979-07-21 09:23:18.010 ,0,0,,0,0.,4.8,0.,4.8,,0,0.,4.8,0.,4.8
1979-07-21 09:23:22.810 ,0,0,,0,0.,4.8,0.,4.8,,0,0.,4.8,0.,4.8
1979-07-21 09:23:27.610 ,0,0,,0,2.,4.8,0.,4.8,,0,0.,4.8,0.,4.8
1979-07-21 09:23:32.410 ,0,0,,0,5.,4.8,0.,4.8,,0,0.,4.8,0.,4.8
1979-07-21 09:23:37.210 ,0,0,,0,2.,4.8,0.,4.8,,0,0.,4.8,0.,4.8
1979-07-21 09:23:42.010 ,0,0,,0,3.,4.8,0.,4.8,,0,0.,4.8,0.,4.8
1979-07-21 09:23:46.810 ,0,0,,0,0.,4.8,0.,4.8,,0,0.,4.8,0.,4.8
1979-07-21 09:23:51.610 ,0,0,,0,0.,4.8,0.,4.8,,0,0.,4.8,0.,4.8
1979-07-21 09:23:56.410 ,0,0,,0,0.,4.8,0.,4.8,,0,0.,4.8,0.,4.8
1979-07-21 09:24:01.210 ,1,0,,0,0.,4.8,0.,4.8,,0,0.,4.8,0.,4.8
1979-07-21 09:24:06.010 ,1,0,,0,0.,4.8,0.,4.8,,0,0.,4.8,0.,4.8
1979-07-21 09:24:10.810 ,1,0,,0,0.,4.8,0.,4.8,,0,0.,4.8,0.,4.8
1979-07-21 09:24:15.610 ,1,0,,0,2.,4.8,0.,4.8,,0,0.,4.8,1.,4.8
1979-07-21 09:24:20.410 ,1,0,,0,1.,4.8,0.,4.8,,0,0.,4.8,0.,4.8
1979-07-21 09:24:25.210 ,1,0,,0,8.,4.8,0.,4.8,,0,0.,4.8,0.,4.8
1979-07-21 09:24:30.010 ,1,0,,0,2.,4.8,0.,4.8,,0,0.,4.8,0.,4.8
1979-07-21 09:24:34.810 ,1,0,,0,1.,4.8,0.,4.8,,0,0.,4.8,0.,4.8
1979-07-21 09:24:39.610 ,1,0,,0,0.,4.8,0.,4.8,,0,0.,4.8,0.,4.8
1979-07-21 09:24:44.410 ,1,0,,0,0.,4.8,0.,4.8,,0,1.,4.8,0.,4.8
1979-07-21 09:24:49.210 ,2,0,,0,0.,4.8,0.,4.8,,0,0.,4.8,0.,4.8
1979-07-21 09:24:54.010 ,2,0,,0,0.,4.8,0.,4.8,,0,0.,4.8,0.,4.8
1979-07-21 09:24:58.810 ,2,0,,0,0.,4.8,0.,4.8,,0,0.,4.8,0.,4.8
1979-07-21 09:25:03.610 ,2,0,,0,2.,4.8,0.,4.8,,0,0.,4.8,0.,4.8
1979-07-21 09:25:08.410 ,2,0,,0,3.,4.8,0.,4.8,,0,0.,4.8,0.,4.8
1979-07-21 09:25:13.210 ,2,0,,0,3.,4.8,0.,4.8,,0,0.,4.8,0.,4.8
1979-07-21 09:25:18.010 ,2,0,,0,5.,4.8,0.,4.8,,0,0.,4.8,0.,4.8
1979-07-21 09:25:22.810 ,2,0,,0,0.,4.8,0.,4.8,,0,0.,4.8,0.,4.8
1979-07-21 09:25:27.610 ,2,0,,0,0.,4.8,0.,4.8,,0,0.,4.8,0.,4.8
1979-07-21 09:25:32.410 ,2,0,,0,0.,4.8,0.,4.8,,0,0.,4.8,1.,4.8
1979-07-21 09:25:37.210 ,3,0,,0,0.,4.8,0.,4.8,,0,0.,4.8,0.,4.8
1979-07-21 09:25:42.010 ,3,0,,0,0.,4.8,0.,4.8,,0,0.,4.8,0.,4.8
1979-07-21 09:25:46.810 ,3,0,,0,1.,4.8,0.,4.8,,0,0.,4.8,0.,4.8
1979-07-21 09:25:51.610 ,3,0,,0,2.,4.8,0.,4.8,,0,0.,4.8,0.,4.8
1979-07-21 09:25:56.410 ,3,0,,0,2.,4.8,0.,4.8,,0,0.,4.8,1.,4.8
1979-07-21 09:26:01.210 ,3,0,,0,6.,4.8,0.,4.8,,0,0.,4.8,0.,4.8
1979-07-21 09:26:06.010 ,3,0,,0,3.,4.8,0.,4.8,,0,0.,4.8,1.,4.8
1979-07-21 09:26:10.810 ,3,0,,0,1.,4.8,0.,4.8,,0,0.,4.8,0.,4.8
1979-07-21 09:26:15.610 ,3,0,,0,0.,4.8,0.,4.8,,0,0.,4.8,1.,4.8
1979-07-21 09:26:20.410 ,3,0,,0,0.,4.8,0.,4.8,,0,0.,4.8,0.,4.8
1979-07-21 09:26:25.210 ,4,0,,0,0.,4.8,0.,4.8,,0,0.,4.8,0.,4.8
1979-07-21 09:26:30.010 ,4,0,,0,0.,4.8,0.,4.8,,0,0.,4.8,0.,4.8
1979-07-21 09:26:34.810 ,4,0,,0,1.,4.8,0.,4.8,,0,0.,4.8,0.,4.8
1979-07-21 09:26:39.610 ,4,0,,0,5.,4.8,0.,4.8,,0,0.,4.8,0.,4.8
1979-07-21 09:26:44.410 ,4,0,,0,4.,4.8,0.,4.8,,0,0.,4.8,0.,4.8
1979-07-21 09:26:49.210 ,4,0,,0,5.,4.8,0.,4.8,,0,0.,4.8,0.,4.8
1979-07-21 09:26:54.010 ,4,0,,0,4.,4.8,0.,4.8,,0,0.,4.8,0.,4.8
1979-07-21 09:26:58.810 ,4,0,,0,5.,4.8,0.,4.8,,0,0.,4.8,1.,4.8
1979-07-21 09:27:03.610 ,4,0,,0,0.,4.8,0.,4.8,,0,0.,4.8,0.,4.8
1979-07-21 09:27:08.410 ,4,0,,0,0.,4.8,0.,4.8,,0,0.,4.8,0.,4.8
1979-07-21 09:27:13.210 ,5,0,,0,0.,4.8,0.,4.8,,0,0.,4.8,1.,4.8
1979-07-21 09:27:18.010 ,5,0,,0,0.,4.8,0.,4.8,,0,0.,4.8,0.,4.8
1979-07-21 09:27:22.810 ,5,0,,0,0.,4.8,0.,4.8,,0,1.,4.8,0.,4.8
1979-07-21 09:27:27.610 ,5,0,,0,2.,4.8,0.,4.8,,0,0.,4.8,0.,4.8
1979-07-21 09:27:32.410 ,5,0,,0,5.,4.8,0.,4.8,,0,0.,4.8,0.,4.8
1979-07-21 09:27:37.210 ,5,0,,0,3.,4.8,0.,4.8,,0,0.,4.8,0.,4.8
1979-07-21 09:27:42.010 ,5,0,,0,2.,4.8,0.,4.8,,0,0.,4.8,0.,4.8
1979-07-21 09:27:46.810 ,5,0,,0,1.,4.8,0.,4.8,,0,0.,4.8,0.,4.8
1979-07-21 09:27:51.610 ,5,0,,0,0.,4.8,0.,4.8,,0,0.,4.8,0.,4.8
1979-07-21 09:27:56.410 ,5,0,,0,0.,4.8,0.,4.8,,0,0.,4.8,0.,4.8
1979-07-21 09:28:01.210 ,6,0,,0,0.,4.8,0.,4.8,,0,0.,4.8,0.,4.8
1979-07-21 09:28:06.010 ,6,0,,0,0.,4.8,0.,4.8,,0,0.,4.8,0.,4.8
1979-07-21 09:28:10.810 ,6,0,,0,0.,4.8,0.,4.8,,0,0.,4.8,0.,4.8
1979-07-21 09:28:15.610 ,6,0,,0,3.,4.8,0.,4.8,,0,0.,4.8,0.,4.8
1979-07-21 09:28:20.410 ,6,0,,0,1.,4.8,0.,4.8,,0,0.,4.8,0.,4.8
1979-07-21 09:28:25.210 ,6,0,,0,4.,4.8,0.,4.8,,0,0.,4.8,0.,4.8
1979-07-21 09:28:30.010 ,6,0,,0,10.,4.8,0.,4.8,,0,0.,4.8,0.,4.8
1979-07-21 09:28:34.810 ,6,0,,0,3.,4.8,0.,4.8,,0,0.,4.8,0.,4.8
1979-07-21 09:28:39.610 ,6,0,,0,1.,4.8,0.,4.8,,0,0.,4.8,0.,4.8
1979-07-21 09:28:44.410 ,6,0,,0,0.,4.8,0.,4.8,,0,0.,4.8,0.,4.8
1979-07-21 09:28:49.210 ,7,0,,0,0.,4.8,0.,4.8,,0,0.,4.8,0.,4.8
1979-07-21 09:28:54.010 ,7,0,,0,0.,4.8,0.,4.8,,0,0.,4.8,0.,4.8
1979-07-21 09:28:58.810 ,7,0,,0,3.,4.8,0.,4.8,,0,0.,4.8,0.,4.8
1979-07-21 09:29:03.610 ,7,0,,0,11.,4.8,0.,4.8,,0,0.,4.8,0.,4.8
1979-07-21 09:29:08.410 ,7,0,,0,14.,4.8,0.,4.8,,0,0.,4.8,0.,4.8
1979-07-21 09:29:13.210 ,7,0,,0,13.,4.8,0.,4.8,,0,0.,4.8,0.,4.8
1979-07-21 09:29:18.010 ,7,0,,0,12.,4.8,0.,4.8,,0,0.,4.8,0.,4.8
1979-07-21 09:29:22.810 ,7,0,,0,11.,4.8,0.,4.8,,0,0.,4.8,0.,4.8
1979-07-21 09:29:27.610 ,7,0,,0,0.,4.8,0.,4.8,,0,0.,4.8,0.,4.8
1979-07-21 09:29:32.410 ,7,0,,0,0.,4.8,0.,4.8,,0,0.,4.8,0.,4.8
1979-07-21 09:29:37.210 ,7,0,,0,0.,4.8,0.,4.8,,0,0.,4.8,1.,4.8
1979-07-21 09:29:42.010 ,7,0,,0,0.,4.8,0.,4.8,,0,0.,4.8,0.,4.8
1979-07-21 09:29:46.810 ,7,0,,0,2.,4.8,0.,4.8,,0,0.,4.8,0.,4.8
1979-07-21 09:29:51.610 ,7,0,,0,9.,4.8,0.,4.8,,0,0.,4.8,0.,4.8
1979-07-21 09:29:56.410 ,7,0,,0,20.,4.8,0.,4.8,,0,0.,4.8,0.,4.8
1979-07-21 09:30:01.210 ,7,0,,0,10.,4.8,0.,4.8,,0,0.,4.8,0.,4.8
1979-07-21 09:30:06.010 ,7,0,,0,12.,4.8,0.,4.8,,0,0.,4.8,1.,4.8
1979-07-21 09:30:10.810 ,7,0,,0,14.,4.8,0.,4.8,,0,0.,4.8,0.,4.8